Location: Noordwijk
(52.2400°N, 4.4500°E)
Time: 08:34:31
(UTC+00:00)

STRAND 1 - Visible Passes

Search period start: 27 November 2022 00:00
Search period end: 07 December 2022 00:00
Orbit: 767 x 781 km, 98.4° (Epoch: 26 November)

Date Brightness Start Highest point End Pass type
(mag) Time Alt. Az. Time Alt. Az. Time Alt. Az.
27 Nov ? 03:40:28 10° E 03:43:25 16° NE 03:46:22 10° NNE visible
27 Nov ? 05:16:40 10° SSE 05:21:47 73° ENE 05:26:55 10° NNW visible
27 Nov ? 19:09:45 14° SSW 19:09:45 14° SSW 19:10:22 10° SSW visible
28 Nov ? 04:42:52 10° SE 04:47:39 41° ENE 04:52:26 10° N visible
28 Nov ? 06:22:12 10° SSW 06:26:54 36° W 06:31:37 10° NNW visible
28 Nov ? 18:35:05 15° S 18:35:05 15° S 18:35:54 10° S visible
29 Nov ? 04:09:37 10° ESE 04:13:41 24° ENE 04:17:44 10° N visible
29 Nov ? 05:47:21 10° S 05:52:27 66° WSW 05:57:34 10° NNW visible
29 Nov ? 18:00:25 12° SSE 18:00:25 12° SSE 18:00:48 10° SSE visible
30 Nov ? 03:37:05 10° E 03:39:52 15° NE 03:42:38 10° NNE visible
30 Nov ? 05:13:05 10° SSE 05:18:11 69° ENE 05:23:17 10° N visible
30 Nov ? 19:06:07 14° SSW 19:06:07 14° SSW 19:06:45 10° SSW visible
01 Dec ? 04:39:20 10° SE 04:44:03 39° ENE 04:48:47 10° N visible
01 Dec ? 06:18:30 10° SSW 06:23:16 38° W 06:28:02 10° NNW visible
01 Dec ? 18:31:25 14° S 18:31:25 14° S 18:32:13 10° S visible
02 Dec ? 04:06:09 10° ESE 04:10:06 23° ENE 04:14:03 10° N visible
02 Dec ? 05:43:43 10° S 05:48:50 70° WSW 05:53:58 10° NNW visible
02 Dec ? 17:56:44 11° SSE 17:56:44 11° SSE 17:57:03 10° SSE visible
02 Dec ? 19:37:07 10° SW 19:37:07 10° SW 19:37:10 10° SW visible
03 Dec ? 03:33:43 10° E 03:36:18 14° NE 03:38:53 10° NNE visible
03 Dec ? 05:09:30 10° SSE 05:14:34 65° ENE 05:19:39 10° N visible
03 Dec ? 06:50:15 10° SW 06:54:12 22° W 06:58:10 10° NW visible
03 Dec ? 19:02:25 14° SSW 19:02:25 14° SSW 19:03:07 10° SSW visible
04 Dec ? 04:35:49 10° SE 04:40:28 37° ENE 04:45:08 10° N visible
04 Dec ? 06:14:49 10° SSW 06:19:37 40° W 06:24:27 10° NNW visible
04 Dec ? 18:27:42 15° S 18:27:42 15° S 18:28:32 10° S visible
05 Dec ? 04:02:40 10° ESE 04:06:31 22° NE 04:10:22 10° N visible
05 Dec ? 05:40:05 10° S 05:45:13 75° WSW 05:50:21 10° NNW visible
05 Dec ? 17:53:00 11° SE 17:53:00 11° SE 17:53:18 10° SSE visible
05 Dec ? 19:33:23 11° SW 19:33:23 11° SW 19:33:35 10° SW visible
06 Dec ? 03:30:21 10° ENE 03:32:44 13° NE 03:35:06 10° NNE visible
06 Dec ? 05:05:55 10° SSE 05:10:57 61° ENE 05:16:01 10° N visible
06 Dec ? 06:46:28 10° SW 06:50:32 24° W 06:54:37 10° NW visible
06 Dec ? 18:58:40 15° SSW 18:58:40 15° SSW 18:59:30 10° SSW visible
